Location: Pasarilla del Rebollar
(40.6790°N, 5.0062°W)
Time: 10:40:11
(UTC+00:00)

USA 234 - Pass Details

Date: 22 April 2026
Orbit: 1102 x 1106 km, 123.0° (Epoch: 4 January)

Event Time Altitude Azimuth Distance (km) Brightness Sun altitude
Rises 03:44:19 0° 124° (ESE) 3,908 6.4 -18.9°
Reaches altitude 10° 03:46:47 10° 122° (ESE) 2,952 5.8 -18.6°
Maximum altitude 03:53:17 74° 39° (NE) 1,145 3.5 -17.6°
Drops below altitude 10° 03:59:48 10° 316° (NW) 2,965 5.4 -16.5°
Sets 04:02:18 0° 315° (NW) 3,925 6.0 -16.1°
